Regional Weather Roundup
Issued by NWS

Home | Current Version | Previous Version | Text Only | Print | Product List | Glossary On
Versions: 1 2 3 4 5 6 7 8 9 10 11 12 13 14 15 16 17 18 19 20 21 22 23 24 25 26 27 28 29 30 31 32 33 34 35 36 37 38 39 40 41 42 43 44 45 46 47 48 49 50
760
ASUS44 KBMX 291410
RWRAL

ALABAMA REGIONAL WEATHER ROUNDUP
NATIONAL WEATHER SERVICE BIRMINGHAM AL
900 AM CDT FRI APR 29 2016

NOTE: "FAIR" INDICATES FEW OR NO CLOUDS BELOW 12,000 FEET
WITH NO SIGNIFICANT WEATHER AND/OR OBSTRUCTIONS TO VISIBILITY.

THE REMARK "TC" DENOTES TEMPERATURE IN DEGREES CELSIUS.

ALZ001>011-014-016>018-020-291500-
NORTH ALABAMA

CITY           SKY/WX    TMP DP  RH WIND       PRES   REMARKS
MUSCLE SHOALS  CLOUDY    70  60  70 E6        30.02F
HUNTSVILLE     PTSUNNY   73  57  57 SE9       30.03R
DECATUR        SUNNY     71  59  65 VRB6      30.04R
HALEYVILLE     FAIR      73  59  61 SE8       30.04F
GADSDEN        CLOUDY    70  63  78 CALM      30.05R
$$

ALZ012-013-022-023-030>036-040>044-291500-
WEST CENTRAL ALABAMA

CITY           SKY/WX    TMP DP  RH WIND       PRES   REMARKS
TUSCALOOSA     CLOUDY    72  67  84 CALM      30.00R
$$

ALZ015-024>027-033>036-040>044-291500-
CENTRAL ALABAMA

CITY           SKY/WX    TMP DP  RH WIND       PRES   REMARKS
BIRMINGHAM     CLOUDY    77  58  51 VRB3      30.04R
MONTGOMERY     SUNNY     76  68  76 E3        30.01R
SHELBY CO ARPT MOSUNNY   74  67  78 N3        30.01S
MAXWELL AFB    MOSUNNY   71  71 100 CALM      30.00S
GREENVILLE     FAIR      74  67  78 CALM      30.00S
$$

ALZ019-021-028-029-037-038-045>048-291500-
EAST CENTRAL ALABAMA

CITY           SKY/WX    TMP DP  RH WIND       PRES   REMARKS
ANNISTON       SUNNY     71  61  70 E3        30.03S
ALEXANDER CITY SUNNY     75  70  86 E3        30.02R
AUBURN         NOT AVBL
$$

ALZ051>064-291500-
SOUTHWEST ALABAMA

CITY           SKY/WX    TMP DP  RH WIND       PRES   REMARKS
MOBILE         MOSUNNY   78  65  63 SE13      29.99S
BROOKLEY FIELD SUNNY     76  67  73 SE10      29.99F
EVERGREEN      SUNNY     75  66  73 SE3       30.01R
$$

ALZ049-050-065>069-291500-
SOUTHEAST ALABAMA

CITY           SKY/WX    TMP DP  RH WIND       PRES   REMARKS
DOTHAN         SUNNY     78  67  68 N5        30.04S
OZARK          SUNNY     76  68  75 VRB1      30.01S
TROY           SUNNY     75  69  81 CALM      30.02S
EUFAULA        FAIR      77  68  73 VRB3      29.99F
$$




USA.gov is the U.S. government's official web portal to all federal, state and local government web resources and services.